Location: *
(73.1450°S, 22.9000°E)
Time: 15:23:21
(UTC+00:00)

Daily predictions for brighter satellites

Satellite Brightness Start Highest point End
(mag) Time Altitude Azimuth Time Altitude Azimuth Time Altitude Azimuth
Tsikada Rocket 4.3 14:55:37 10° NNE 15:01:42 49° E 15:07:52 10° SSE
Cosmos 2279 Rocket 4.1 14:55:49 10° SSW 15:02:11 85° ESE 15:08:29 10° NNE
Cosmos 2082 Rocket 2.8 14:59:08 10° WSW 15:04:48 61° NNW 15:10:24 10° NE
CZ-2C R/B 3.2 15:00:03 10° E 15:05:27 45° SSE 15:10:50 10° SW
Meteor 1-14 Rocket 4.3 14:59:44 10° SW 15:05:30 65° SE 15:11:22 10° NE
Cosmos 2263 Rocket 3.4 15:01:41 10° N 15:06:11 25° ENE 15:10:41 10° ESE
Helios 1A Rocket 4.0 15:02:38 10° SSE 15:06:19 28° E 15:10:01 10° NNE
IRS-1C 4.5 15:01:28 10° SE 15:06:54 71° SW 15:12:19 10° NW
Cosmos 1833 Rocket 3.5 15:01:41 10° WSW 15:07:16 57° NNW 15:12:51 10° NE
Cosmos 1908 Rocket 4.4 15:03:57 10° SW 15:08:01 33° SSE 15:12:07 10° E
Meteor 1-31 Rocket 3.4 15:04:36 10° SSE 15:08:23 39° E 15:12:05 10° N
NPP 4.2 15:03:05 10° SE 15:08:30 59° SW 15:13:52 10° WNW
MSX 4.1 15:02:57 10° SSE 15:08:41 55° ENE 15:14:24 10° N
Cosmos 1666 Rocket 4.1 15:04:57 10° SSW 15:09:33 70° WNW 15:14:07 10° N
CZ-2C R/B 2.9 15:05:45 10° SSE 15:09:44 82° WSW 15:13:34 10° NW
Cosmos 1340 3.7 15:07:10 10° SW 15:10:40 30° SSE 15:14:10 10° E
Okean 2 Rocket 4.3 15:06:45 10° SW 15:10:46 28° SSE 15:14:45 10° ESE
Cosmos 1933 Rocket 3.6 15:06:46 10° SSW 15:11:22 80° ESE 15:15:54 10° NNE
USA 116 4.2 15:09:52 10° NNE 15:13:33 60° WNW 15:16:55 10° SSW
deb Kosmos-1763 4.2 15:10:21 10° WSW 15:14:11 84° SSE 15:18:02 10° ENE
COBE Rocket 4.2 15:10:14 10° NNE 15:15:28 85° WNW 15:20:49 10° SSW
Cosmos 1606 4.5 15:17:52 10° ENE 15:20:03 14° ESE 15:22:13 10° SE
Cosmos 1898 Rocket 4.1 15:14:45 10° WSW 15:20:07 67° NW 15:25:29 10° NE
SJ 16-02 1.6 15:15:44 10° WSW 15:20:14 80° NW 15:24:43 10° NE
Cosmos 1437 3.2 15:17:24 10° SSW 15:20:35 64° WNW 15:23:45 10° NNE
Cosmos 1340 Rocket 3.6 15:17:48 10° NNE 15:21:26 34° E 15:25:08 10° SSE
Cosmos 1420 Rocket 4.2 15:16:47 10° NW 15:22:05 72° NE 15:27:21 10° ESE
Cosmos 1371 Rocket 4.1 15:16:42 10° WNW 15:22:06 87° NNE 15:27:27 10° ESE
Timation 2 Rocket 4.3 15:15:53 10° WNW 15:22:09 67° N 15:28:42 10° E
Cosmos 1812 Rocket 4.3 15:18:18 10° NW 15:22:47 55° SW 15:27:20 10° SSE
Cosmos 1743 4.1 15:20:50 10° SW 15:24:12 25° SSE 15:27:34 10° ESE
Meteor 1-20 Rocket 4.3 15:19:01 10° SW 15:24:49 79° SE 15:30:42 10° NE
PSLV R/B 4.4 15:22:02 10° SSE 15:25:47 38° E 15:29:26 10° N
YAOGAN 1 4.5 15:24:54 10° SE 15:26:02 11° ESE 15:27:09 10° ESE
Cosmos 1842 Rocket 3.7 15:23:08 10° NNW 15:27:39 71° ENE 15:32:13 10° SSE
Cosmos 371 Rocket 4.0 15:23:22 10° N 15:27:54 39° ENE 15:32:29 10° SE
Cosmos 1151 Rocket 4.0 15:24:31 10° NE 15:28:11 27° E 15:31:54 10° SSE
DMSP B5D2-2 4.3 15:23:12 10° ENE 15:28:26 55° SE 15:33:40 10° SW
Cosmos 2227 Rocket 2.6 15:22:51 10° NW 15:28:28 56° NNE 15:34:04 10° ESE
Cosmos 2228 4.4 15:26:23 10° W 15:30:28 34° SSW 15:34:33 10° SE
SeaSat 1 2.7 15:25:40 10° ESE 15:30:41 67° NNE 15:35:41 10° WNW
Cosmos 405 Rocket 4.3 15:27:17 10° WSW 15:30:51 28° S 15:34:28 10° SE
Cosmos 1553 Rocket 4.1 15:25:45 10° SW 15:31:51 54° SE 15:37:53 10° ENE
Meteor PRIRODA 4.2 15:28:39 10° SSE 15:32:21 43° ENE 15:36:03 10° N
Cosmos 1470 Rocket 3.9 15:27:54 10° SSW 15:32:21 76° WNW 15:36:50 10° NNE
IDEFIX/ARIANE 42P 2.6 15:27:03 10° SSE 15:32:27 77° ENE 15:37:47 10° NNW
Cosmos 2221 2.6 15:29:58 10° N 15:34:17 64° ENE 15:38:39 10° SSE
Cosmos 1975 4.2 15:30:45 10° SW 15:34:21 26° SSE 15:37:51 10° ESE
Cosmos 1331 Rocket 4.3 15:30:11 10° NNW 15:35:15 52° NE 15:40:21 10° ESE
ALOS 3.1 15:31:12 10° SSE 15:35:30 32° E 15:39:45 10° NNE
Cosmos 1908 4.5 15:32:26 10° WNW 15:36:15 39° SW 15:40:03 10° SSE
Cosmos 2228 Rocket 4.2 15:32:48 10° NE 15:36:19 23° E 15:39:51 10° SSE
Cosmos 1110 Rocket 4.3 15:32:17 10° NNW 15:37:27 55° NE 15:42:36 10° ESE
Cosmos 1452 Rocket 3.6 15:34:32 10° NW 15:39:53 75° NNE 15:45:16 10° ESE
Cosmos 1869 Rocket 3.6 15:38:08 10° SSW 15:42:44 74° ESE 15:47:15 10° NE
Sich 1 4.5 15:38:48 10° SSW 15:43:01 44° W 15:47:10 10° NNW
Cosmos 1125 Rocket 3.6 15:37:48 10° WSW 15:43:11 88° NNW 15:48:31 10° ENE
Meteor 2-20 Rocket 4.5 15:37:44 10° NNW 15:43:55 79° ENE 15:50:10 10° SSE
Cosmos 1328 Rocket 4.3 15:40:01 10° NNE 15:44:06 34° E 15:48:13 10° SSE
CZ-2C R/B 3.8 15:40:10 10° NNE 15:44:43 82° WNW 15:49:18 10° SSW
Cosmos 2297 Rocket 2.5 15:39:05 10° NW 15:44:43 60° NNE 15:50:08 11° ESE
MTI 4.5 15:42:06 10° ENE 15:45:06 35° SE 15:48:06 10° SSW
H-2A R/B 2.4 15:41:18 10° SSE 15:45:22 84° ENE 15:49:32 10° NNW
Resurs 1-4 Rocket 2.9 15:40:14 10° SE 15:45:25 47° SSW 15:50:36 10° WNW
Cosmos 1470 4.5 15:42:49 10° W 15:46:19 26° SSW 15:49:48 10° SE
Cosmos 1782 Rocket 4.4 15:42:28 10° SW 15:46:40 35° SSE 15:50:54 10° E
Cosmos 1484 Rocket 3.2 15:43:06 10° SSE 15:46:44 39° E 15:50:22 10° N
Cosmos 1666 3.7 15:43:18 10° SSW 15:46:50 30° SSE 15:50:13 11° E
Cosmos 1726 3.6 15:45:07 10° W 15:48:33 31° SW 15:51:58 10° SSE
Cosmos 1733 Rocket 3.3 15:44:17 10° SSW 15:48:46 52° SE 15:53:12 10° NE
Cosmos 2058 Rocket 4.4 15:46:51 10° W 15:50:56 34° SSW 15:55:03 10° SE
Cosmos-2242 3.6 15:47:42 10° NW 15:52:08 61° SW 15:56:34 10° SSE
CZ-4 R/B 3.1 15:50:24 10° SE 15:52:59 15° ESE 15:55:33 10° ENE
SWARM A 4.3 15:51:18 10° S 15:54:49 84° E 15:58:17 10° N
CZ-4B DEB 4.5 15:49:58 10° SSE 15:55:25 49° ENE 16:00:48 10° N
Cosmos 332 Rocket 4.3 15:50:47 10° NNW 15:55:32 46° NE 16:00:14 10° ESE
S3M 4.2 15:49:22 10° SSW 15:55:45 58° SE 16:02:09 10° NE
IRIDIUM 106 4.4 15:51:09 10° N 15:56:24 63° E 16:01:40 10° SSE
Spot 2 4.2 15:54:25 10° SSE 15:58:40 72° SW 16:02:47 10° NW
Cosmos 2315 Rocket 4.4 15:54:35 10° SW 16:00:47 49° SE 16:07:00 10° ENE
Meteor 1-27 4.3 15:55:53 10° NNW 16:01:31 69° ENE 16:07:14 10° SSE
Cosmos 1602 3.8 15:57:37 10° SSW 16:01:41 68° ESE 16:05:42 10° NE
Cosmos 1455 2.5 15:57:57 10° NNW 16:01:57 76° WSW 16:05:57 10° SSE
Cosmos 2278 Rocket 3.9 16:00:13 10° ENE 16:02:05 12° E 16:02:05 12° E
Meteor 2-10 Rocket 3.5 15:56:55 10° NNW 16:02:09 77° ENE 16:07:17 10° SSE
SME Rocket 3.9 15:58:10 10° SE 16:02:12 56° SW 16:07:31 10° WNW
Cosmos 1356 Rocket 4.4 15:59:07 10° NE 16:02:30 25° E 16:05:54 10° SE
Cosmos 1300 3.8 15:59:16 10° WNW 16:03:03 43° SW 16:06:52 10° SSE
Cosmos 1356 4.4 16:00:06 10° WNW 16:03:33 46° SW 16:07:01 10° SSE
Cosmos 1536 3.3 16:00:54 10° SSW 16:04:51 42° SE 16:08:47 10° ENE
Cosmos 1346 Rocket 3.3 16:02:04 10° SW 16:06:08 44° SE 16:09:57 11° ENE
MOS 1 Rocket 4.0 16:04:50 12° E 16:09:00 38° SSE 16:13:16 10° SW
Cosmos 1937 Rocket 4.3 16:04:11 10° WSW 16:09:17 55° NW 16:14:24 10° NNE
Cosmos 304 Rocket 4.3 16:05:57 10° NNW 16:10:29 40° NE 16:14:40 12° ESE
FENGYUN 3A 4.0 16:08:03 10° SSE 16:13:23 45° E 16:18:41 10° N
COSMOS 2487 2.5 16:10:21 10° WSW 16:13:56 75° SSE 16:16:46 15° E
CZ-4B R/B 3.4 16:11:42 10° SSE 16:17:00 49° ENE 16:22:13 10° N
MOS 1-B 4.4 16:12:18 10° SSE 16:18:13 63° ENE 16:24:05 10° NNW
COSMOS 2441 4.5 16:13:51 10° SSE 16:18:54 89° WSW 16:23:56 10° NNW
Cosmos 1833 4.5 16:13:22 10° W 16:19:07 70° N 16:24:32 12° ENE
CZ-2D R/B 3.1 16:15:03 10° SE 16:20:01 41° SSW 16:24:59 10° W
Helios 1B rocket 3.8 16:17:38 14° ESE 16:20:27 28° SSE 16:24:04 10° SW
SL-27 R/B 2.6 16:17:28 10° WSW 16:20:53 73° NW 16:24:17 10° NE
Radarsat Rocket 4.4 16:15:01 10° SSE 16:21:10 41° E 16:26:47 10° N
EO 1 Del DPAF 3.6 16:18:44 12° ENE 16:22:12 47° SE 16:25:58 10° SSW
Okean 1 Rocket 4.3 16:18:32 10° SW 16:22:36 30° SSE 16:25:35 16° ESE
Okean O Rocket 1.8 16:19:11 10° SSE 16:23:40 53° ENE 16:28:06 10° N
Cosmos 1441 Rocket 4.5 16:20:30 10° SW 16:23:57 28° SSE 16:26:20 16° ESE
PSLV R/B 4.0 16:19:40 10° SSE 16:24:04 65° SW 16:28:23 10° NW
Cosmos 1500 3.4 16:20:32 10° SSW 16:24:22 51° SE 16:28:12 10° NE
Cosmos 2056 Rocket 3.5 16:19:31 10° W 16:24:45 83° S 16:28:59 16° ESE
Cosmos 921 Rocket 3.5 16:20:40 10° N 16:24:53 42° ENE 16:28:37 12° SE
CZ-2C R/B 2.6 16:19:47 10° SSE 16:25:05 86° ENE 16:30:25 10° NNW
Okean-O 3.5 16:22:52 10° SSE 16:26:53 29° E 16:30:50 10° NNE
Meteor 1-11 Rocket 3.7 16:21:18 10° SW 16:26:57 74° SE 16:32:39 10° NE
Thor Agena Rocket 3.7 16:21:52 10° ENE 16:27:10 60° SE 16:32:25 10° SW
Envisat 4.0 16:23:13 10° SSE 16:27:30 25° E 16:31:45 10° NE
Cosmos 372 Rocket 4.4 16:22:25 10° WSW 16:27:35 66° NW 16:32:42 10° NE
CZ-4B R/B 3.1 16:24:15 10° SSE 16:28:49 89° SW 16:33:09 10° NNW
ADEOS Rocket 3.7 16:22:02 10° NNE 16:29:57 88° NW 16:37:45 10° SSW
Cosmos 2219 3.3 16:24:21 10° WNW 16:30:02 72° N 16:34:35 16° E
ADEOS II 2.9 16:24:54 10° SE 16:30:04 49° SSW 16:35:12 10° WNW
Cosmos 1844 Rocket 3.7 16:25:51 10° N 16:30:22 26° ENE 16:33:40 15° ESE
ARIANE 5 R/B 3.4 16:25:52 10° SE 16:30:45 47° SSW 16:35:36 10° WNW
Cosmos 1782 4.0 16:27:59 10° NE 16:31:11 22° E 16:34:25 10° SSE
Cosmos 2082 3.9 16:25:35 10° WNW 16:31:13 65° NNE 16:35:43 16° E
PAYLOAD A 3.9 16:26:52 10° SSE 16:31:44 85° WSW 16:36:41 10° NW
Cosmos 1461 4.4 16:28:38 10° NW 16:32:41 29° NNE 16:35:51 15° ENE
Cosmos 1869 3.3 16:28:46 10° NNW 16:32:53 76° ENE 16:37:01 10° SSE
Cosmos 1992 Rocket 4.4 16:28:04 10° NNW 16:33:06 46° NE 16:37:36 13° ESE
CZ-4B R/B 3.8 16:30:36 10° SSE 16:34:26 86° WSW 16:38:22 10° NNW
Mayak -0.2 16:32:33 17° ESE 16:35:03 31° SSE 16:38:49 10° SW
SJ-12 3.9 16:31:09 10° SSE 16:35:20 63° ENE 16:39:29 10° NNW
METEOR-M 4.3 16:30:13 10° SSE 16:35:36 56° ENE 16:40:57 10° N
Cosmos 1953 4.2 16:32:08 10° WSW 16:35:37 25° SSW 16:39:06 10° SE
ADEOS 4.0 16:30:27 10° SE 16:35:45 67° SW 16:41:02 10° NW
H-2A R/B 3.6 16:32:53 10° SSE 16:36:30 30° E 16:40:05 10° NNE
Cosmos 1300 Rocket 4.4 16:33:00 10° SW 16:37:12 36° SSE 16:39:56 19° E
CZ-4C R/B 4.5 16:35:47 10° W 16:40:45 24° NW 16:45:09 10° N
Iridium 4 Rocket 3.3 16:37:31 10° NNE 16:42:01 61° E 16:46:58 10° S
Helios 1A Rocket 2.9 16:37:52 10° SSE 16:42:08 72° ENE 16:46:23 10° NNW
Cosmos 2026 Rocket 4.5 16:37:13 10° NNE 16:42:59 37° E 16:48:43 10° SSE
Meteor 1-31 Rocket 3.0 16:39:08 10° SSE 16:43:07 77° WSW 16:47:03 10° NW
Cosmos 1624 Rocket 4.1 16:37:44 10° W 16:43:10 82° S 16:47:15 18° E
CZ-2C R/B 4.2 16:40:17 10° SSE 16:43:56 36° SW 16:47:30 10° WNW
PAYLOAD B 4.2 16:39:22 10° SSE 16:45:05 69° ENE 16:50:43 10° NNW
CZ-2C R/B 2.8 16:39:40 10° NE 16:45:23 74° SE 16:51:05 10° SSW
SMAP 3.5 16:41:56 10° SSE 16:46:28 40° E 16:50:56 10° NNE
Cosmos 1908 Rocket 3.6 16:42:11 10° SSW 16:46:40 61° SE 16:50:55 11° NE
Cosmos 1340 2.9 16:43:07 10° SSW 16:46:59 55° SE 16:49:43 18° ENE
Tsikada Rocket 4.2 16:40:39 10° NNW 16:47:04 84° WSW 16:53:36 10° SSE
Cosmos 2082 Rocket 3.6 16:43:05 10° WSW 16:48:18 37° NW 16:53:29 10° NNE
Cosmos 2263 Rocket 2.5 16:43:47 10° NNW 16:49:09 47° NE 16:53:08 18° ESE
Okean 2 Rocket 3.7 16:45:28 10° SSW 16:49:53 43° SE 16:52:40 20° ENE
Cosmos 1833 Rocket 4.4 16:45:28 10° WSW 16:50:30 33° NW 16:55:32 10° N
MSX 4.0 16:44:56 10° SSE 16:50:47 77° SW 16:56:36 10° NW
Cosmos 1092 Rocket 4.3 16:44:48 10° NNE 16:50:49 46° E 16:56:55 10° SSE
YAOGAN 6 4.2 16:47:59 10° SSE 16:49:52 19° ESE 16:49:52 19° ESE
Cosmos 1302 Rocket 4.1 16:45:37 10° NW 16:50:56 69° NE 16:55:21 16° ESE
NOAA 6 4.1 16:48:02 10° SSE 16:53:20 64° ENE 16:58:35 10° NNW
H-2A R/B 3.9 16:51:23 10° SSE 16:54:20 14° ESE 16:54:20 14° ESE
Cosmos 1606 3.3 16:51:12 10° NNE 16:54:53 37° E 16:58:35 10° SSE
Meteor 2-9 Rocket 4.5 16:50:15 10° SW 16:55:32 49° SE 16:59:12 20° ENE
Meteor 1-5 Rocket 4.4 16:49:52 10° SSW 16:55:50 90° WNW 17:01:54 10° NNE
Cosmos 1340 Rocket 2.8 16:53:36 10° NNW 16:57:39 89° WSW 17:01:45 10° SSE
Sich 1 Rocket 3.9 16:53:28 10° SSW 16:58:02 53° SE 17:01:19 18° ENE
SJ 16-02 2.8 16:54:23 10° SW 16:58:33 39° WNW 17:02:42 10° N
USA 81 4.3 16:53:54 10° NNE 16:59:00 46° E 17:04:07 10° SSE
PSLV R/B 3.9 16:56:42 10° SSE 17:00:42 78° WSW 17:04:34 10° NW
Cosmos 1743 3.3 16:57:02 10° SSW 17:00:53 42° SE 17:02:48 25° E
YAOGAN 1 3.5 16:59:56 10° SSE 17:03:41 26° E 17:06:40 14° NE
Cosmos 1420 Rocket 4.0 16:58:54 10° W 17:04:14 84° S 17:07:53 21° ESE
Cosmos 1371 Rocket 4.1 16:59:05 10° W 17:04:28 81° S 17:07:59 22° E
Cosmos 1151 Rocket 3.0 17:00:54 10° NNW 17:05:15 70° ENE 17:09:40 10° SSE
Cosmos 1842 Rocket 4.5 17:01:22 10° NW 17:05:48 51° SW 17:10:18 10° SSE
IRS-1C Rocket 4.2 17:00:59 10° SSE 17:06:18 55° ENE 17:11:35 10° N
Meteor PRIRODA 4.0 17:02:31 10° SSE 17:06:22 69° SW 17:10:12 10° NW
Cosmos 405 Rocket 4.1 17:04:15 10° SW 17:07:55 30° SSE 17:09:54 20° ESE
Cosmos 371 Rocket 3.3 17:03:04 10° NW 17:07:58 74° NNE 17:11:30 19° ESE
DMSP B5D2-2 4.3 17:02:39 10° NNE 17:08:04 80° WNW 17:13:29 10° SSW
SeaSat 1 2.5 17:05:13 22° E 17:08:33 80° N 17:13:34 10° W
Meteor 2-2 Rocket 4.5 17:02:53 10° NW 17:09:00 82° SW 17:15:02 10° SSE
Cosmos 1707 Rocket 4.2 17:05:09 10° NNE 17:09:06 33° E 17:13:06 10° SSE
Timation 2 Rocket 4.4 17:03:04 10° W 17:09:21 64° NNW 17:14:26 18° ENE
Ariane Rocket 4.1 17:05:16 10° SSE 17:09:25 23° E 17:10:10 22° E
Cosmos 1975 3.4 17:07:41 10° SSW 17:11:45 43° SE 17:13:38 26° E
Cosmos 1515 Rocket 3.6 17:07:25 10° N 17:11:57 66° ENE 17:16:31 10° SSE
IDEFIX/ARIANE 42P 3.3 17:06:47 10° SE 17:12:02 56° SW 17:17:15 10° WNW
Cosmos 2221 3.3 17:07:45 10° NW 17:12:03 53° SW 17:16:22 10° SSE
Cosmos 883 Rocket 4.5 17:05:52 10° SSW 17:12:10 74° ESE 17:18:29 10° NE
Cosmos 2227 Rocket 2.3 17:06:33 10° WNW 17:12:18 73° N 17:16:00 23° E
ALOS 2.2 17:08:47 10° SSE 17:13:36 76° ENE 17:18:23 10° NNW
Cosmos 1844 4.5 17:08:36 10° N 17:13:41 32° NE 17:16:29 21° E
Cosmos 2228 Rocket 3.1 17:09:28 10° N 17:13:52 58° ENE 17:18:19 10° SSE
Cosmos 2227 4.4 17:09:52 10° NW 17:15:36 59° NNE 17:19:23 22° E
MTI 3.8 17:14:06 14° NNE 17:16:50 81° WNW 17:20:06 10° SSW
Cosmos 1331 Rocket 4.0 17:11:48 10° WNW 17:17:04 86° NNE 17:20:45 20° ESE
Cosmos 1553 Rocket 4.1 17:11:29 10° SSW 17:17:42 82° WNW 17:23:52 10° NNE
Cosmos 1110 Rocket 4.0 17:14:04 10° WNW 17:19:24 88° NNE 17:23:02 21° ESE
H-2A R/B 3.5 17:16:56 10° SSE 17:20:45 44° SW 17:24:42 10° WNW
Cosmos 1484 Rocket 2.9 17:17:37 10° SSE 17:21:28 74° WSW 17:25:18 10° NW
Cosmos 1328 Rocket 3.6 17:17:01 10° NNW 17:21:33 86° ENE 17:26:09 10° SSE
Cosmos 1933 3.4 17:17:37 10° N 17:21:46 60° ENE 17:25:56 10° SSE
Cosmos 1452 Rocket 3.6 17:16:45 10° W 17:22:09 82° S 17:25:35 23° E
GP-B 4.2 17:22:01 25° ESE 17:22:57 27° ESE 17:26:45 10° S
Cosmos 1666 2.7 17:19:08 10° SSW 17:23:04 64° ESE 17:25:07 26° NE
ASTEX 1 3.7 17:21:05 20° NE 17:24:17 49° ESE 17:29:08 10° SSW
Resurs 1-4 Rocket 3.3 17:20:19 13° SE 17:24:35 37° S 17:29:30 10° WSW
Cosmos 1939 Rocket 4.4 17:21:21 10° SSE 17:23:30 20° ESE 17:23:30 20° ESE
Cosmos 1726 4.2 17:21:48 10° WSW 17:24:47 21° S 17:27:28 11° SE
Cosmos 1125 Rocket 4.2 17:19:57 10° WSW 17:25:09 55° NW 17:30:07 11° NNE
Cosmos 1782 Rocket 3.6 17:20:40 10° SSW 17:25:13 70° ESE 17:28:14 21° NE
Cosmos 1733 Rocket 3.5 17:22:15 10° SSW 17:26:49 68° WNW 17:31:17 10° N
CSL-04 Rocket 4.2 17:22:40 10° SSE 17:27:44 35° E 17:32:40 10° NNE
Cosmos 2297 Rocket 2.3 17:22:51 10° W 17:28:35 73° N 17:31:57 26° E
CZ-4 R/B 2.0 17:25:07 10° SSE 17:29:10 37° E 17:33:12 10° NNE
Cosmos 2151 Rocket 4.0 17:28:35 10° SSW 17:33:05 50° SE 17:35:04 30° ENE
Cosmos 332 Rocket 3.8 17:30:44 10° WNW 17:35:45 81° NNE 17:38:55 23° ESE
Nadezhda 1 Rocket 4.3 17:29:36 10° SW 17:35:59 56° SE 17:39:49 25° ENE
CZ-4B DEB 4.3 17:30:55 10° SSE 17:36:32 82° SW 17:42:06 10° NW
Meteor 1-29 4.3 17:37:17 25° SE 17:38:03 27° SSE 17:41:08 10° SSW
Cosmos 1455 3.9 17:34:26 10° WNW 17:38:06 34° SW 17:41:46 10° SSE
Cosmos 1356 Rocket 3.3 17:34:57 10° NNW 17:39:02 68° ENE 17:43:10 10° SSE
Landsat 4 3.8 17:39:33 35° ENE 17:41:02 64° SE 17:44:55 10° SSW
S3M 4.2 17:35:07 10° SSW 17:41:35 78° WNW 17:48:03 10° NNE
Cosmos 1536 2.9 17:37:30 10° SSW 17:41:38 82° WNW 17:44:44 17° NNE
Nadezhda 4 Rocket 3.9 17:35:57 10° NNW 17:42:14 77° ENE 17:48:38 10° SSE
Cosmos 1346 Rocket 2.9 17:38:39 10° SSW 17:42:52 84° WNW 17:45:29 22° NNE
Cosmos 2278 Rocket 3.1 17:39:46 10° N 17:43:59 26° ENE 17:43:59 26° ENE
Meteor 2-10 Rocket 4.2 17:39:25 10° WNW 17:44:32 54° SW 17:49:35 10° SE
Cosmos 292 Rocket 4.0 17:40:30 10° NNW 17:45:08 47° NE 17:47:33 26° ESE
MOS 1 Rocket 3.3 17:44:08 26° NE 17:46:54 71° SE 17:51:34 10° SSW
Cosmos 2315 Rocket 4.0 17:40:39 10° SSW 17:47:05 85° ESE 17:52:46 14° NNE
COSMOS 2487 2.8 17:45:34 10° WSW 17:49:07 62° NW 17:50:22 36° NNE
Cosmos 304 Rocket 3.7 17:45:32 10° NW 17:50:24 75° NNE 17:53:10 26° ESE
CORIOLIS 4.1 17:46:57 10° SSE 17:52:27 65° ENE 17:57:57 10° NNW
Cosmos 1655 Rocket 4.3 17:47:33 10° NNE 17:53:42 48° E 17:59:54 10° SSE
FENGYUN 3A 3.7 17:48:38 10° SSE 17:54:13 86° WSW 17:59:46 10° NW
Iridium 2 3.7 17:51:07 10° SSW 17:55:03 66° ESE 17:56:21 39° NE
Helios 1B rocket 3.1 17:53:57 33° ESE 17:55:07 41° SE 17:59:05 10° SSW
SL-27 R/B 4.1 17:52:40 10° WSW 17:55:42 30° WNW 17:57:57 15° N
EO 1 Del DPAF 3.4 17:53:49 22° NNE 17:56:14 73° WNW 18:00:09 10° SSW
CZ-4B R/B 3.2 17:52:31 10° SSE 17:57:59 81° SW 18:03:22 10° NW
SME Rocket 4.4 17:55:55 17° SE 17:58:31 36° S 18:03:00 10° WSW
CZ-2D R/B 3.3 17:55:54 17° ESE 17:59:22 36° S 18:04:10 10° WSW
Meteor 2-15 4.5 17:53:48 10° SSW 17:59:59 68° SE 18:03:20 28° NE
Cosmos 1500 3.7 17:56:15 10° SSW 18:00:07 60° WNW 18:03:12 15° N
Okean O Rocket 2.0 17:55:42 10° SSE 18:00:15 67° SW 18:04:44 10° NW
Cosmos 1441 Rocket 3.7 17:56:51 10° SW 18:00:40 46° SE 18:01:25 41° ESE
Okean 1 Rocket 3.5 17:56:57 10° SSW 18:01:27 48° SE 18:02:46 37° E
Feng Yun 1-1 Rocket 4.2 17:56:57 10° SSE 18:02:44 77° ENE 18:08:19 10° NNW
Cosmos 921 Rocket 3.0 17:58:28 10° NW 18:02:57 87° NNE 18:05:25 26° ESE
CZ-2C R/B 3.4 17:58:07 10° SE 18:03:11 51° SW 18:08:19 10° WNW
CZ-4B R/B 4.3 17:59:24 10° SSE 18:03:43 43° SW 18:07:51 10° WNW
Okean-O 2.6 17:59:28 10° SSE 18:04:02 72° ENE 18:08:35 10° NNW
FengYun 1-2 T 4.4 17:59:15 10° SSE 18:04:46 51° ENE 18:10:12 10° N
Thor Agena Rocket 3.8 18:02:08 16° NNE 18:06:30 73° WNW 18:11:52 10° SSW
Meteor 2-8 Rocket 4.4 18:00:23 10° SSW 18:06:42 87° ESE 18:11:06 21° NNE
Cosmos 1782 2.8 18:02:53 10° N 18:06:55 60° ENE 18:11:01 10° SSE
Cosmos 2056 Rocket 3.4 18:01:53 10° WSW 18:07:08 87° SSE 18:09:19 36° ENE
Envisat 3.0 18:02:26 10° SSE 18:07:34 57° ENE 18:12:40 10° N
Cosmos 489 Rocket 4.4 18:02:46 10° NW 18:09:06 78° NNE 18:13:58 18° ESE
ADEOS II 3.4 18:04:49 13° SE 18:09:07 36° S 18:13:59 10° WSW
ARIANE 5 R/B 3.8 18:05:19 14° SE 18:09:14 35° S 18:13:49 10° WSW
Cosmos 1869 4.5 18:05:28 10° WNW 18:09:26 45° SW 18:13:26 10° SSE
Cosmos 1455 Rocket 4.0 18:05:45 10° SW 18:09:58 36° SSE 18:11:06 31° ESE
Radarsat Rocket 4.0 18:03:26 10° SE 18:10:03 82° NE 18:16:05 10° NW
Mayak -1.0 18:09:07 43° E 18:10:10 56° SE 18:14:22 10° SSW
Meteor 1-11 Rocket 4.4 18:04:53 10° SSW 18:10:23 55° WNW 18:15:55 10° N
Cosmos 1461 4.3 18:06:54 10° WNW 18:11:01 30° N 18:12:15 26° NNE
H-2A R/B 2.7 18:07:08 10° SSE 18:11:13 83° ENE 18:15:15 10° NNW
AQUARIUS 4.1 18:06:39 10° SSE 18:11:18 83° ENE 18:15:54 10° NNW
Cosmos 1862 Rocket 3.9 18:11:31 42° ENE 18:11:49 43° E 18:16:06 10° SSE
Cosmos 1953 4.1 18:09:46 10° SW 18:13:15 25° SSE 18:14:50 20° SE
Cosmos 1844 Rocket 2.9 18:07:57 10° NNW 18:13:20 48° NE 18:15:21 33° E
Cosmos 2219 3.3 18:08:24 10° W 18:14:04 68° NNW 18:16:31 35° NE
Cosmos 1805 4.5 18:10:41 10° SSW 18:14:15 29° SSE 18:14:58 28° SE
Cosmos 1992 Rocket 3.9 18:09:28 10° WNW 18:14:46 80° NNE 18:17:46 27° ESE
Cosmos 2082 3.7 18:09:29 10° W 18:15:10 73° N 18:17:35 36° ENE
Cosmos 1300 Rocket 3.6 18:11:05 10° SSW 18:15:38 70° ESE 18:17:01 43° NE
METEOR-M 4.4 18:10:31 10° SSE 18:15:58 73° SW 18:21:23 10° NW
ADEOS Rocket 4.5 18:08:29 10° N 18:16:07 51° W 18:23:41 10° SSW
Cosmos 1544 3.5 18:12:36 10° SSW 18:16:20 47° SE 18:16:37 46° ESE
Meteor 1-31 Rocket 4.4 18:13:37 10° SSE 18:17:16 35° SW 18:20:53 10° WNW
Helios 1A Rocket 3.9 18:13:10 10° SSE 18:17:17 51° SW 18:21:25 10° WNW
Meteor 2-6 Rocket 4.3 18:12:54 10° N 18:18:38 55° ENE 18:24:12 10° SSE
Timation 1 Rocket 4.4 18:14:50 10° NW 18:20:45 58° NNE 18:23:17 34° E
Iridium 4 Rocket 4.1 18:17:41 10° NW 18:22:12 54° WSW 18:27:10 10° SSE
Radarsat 4.5 18:17:10 10° SSE 18:22:31 83° ENE 18:27:50 10° NNW
Cosmos 1340 3.2 18:18:53 10° SSW 18:22:44 57° WNW 18:24:30 29° N
SMAP 3.1 18:19:28 10° SSE 18:24:17 87° WSW 18:29:03 10° NNW
Aureole 3 4.0 18:21:22 10° SSW 18:23:55 30° SSE 18:23:55 30° SSE
Meteor 1-10 Rocket 4.3 18:18:39 10° N 18:24:20 55° ENE 18:29:56 10° SSE
Cosmos 1908 Rocket 4.2 18:20:13 10° SSW 18:24:37 55° WNW 18:28:06 16° N
YAOGAN 6 3.0 18:21:22 10° SSE 18:24:17 46° SE 18:24:17 46° SE
Cosmos 1624 Rocket 4.0 18:20:05 10° WSW 18:25:32 89° NNW 18:27:34 40° ENE
CZ-2C R/B 3.4 18:20:19 10° N 18:25:57 57° WNW 18:31:36 10° SSW
Meteor 1-26 Rocket 4.3 18:21:44 10° NNW 18:27:44 82° ENE 18:33:51 10° SSE
Cosmos 2026 Rocket 3.9 18:21:20 10° NNW 18:27:45 78° ENE 18:34:04 10° SSE
Okean 2 Rocket 3.1 18:23:47 10° SSW 18:28:26 89° NW 18:30:03 41° NNE
Cosmos 1606 2.8 18:26:26 10° NNW 18:30:27 79° WSW 18:34:27 10° SSE
CSL-04 Debris 4.2 18:26:19 10° SSE 18:31:52 59° ENE 18:37:24 10° N
Cosmos 2263 Rocket 2.1 18:27:06 10° WNW 18:32:42 69° NNE 18:34:49 39° E
NOAA 6 4.5 18:27:30 10° SE 18:32:45 65° SW 18:37:58 10° NW
Cosmos 1302 Rocket 4.0 18:27:38 10° WNW 18:33:02 85° SSW 18:35:34 33° ESE
Cosmos 1340 Rocket 4.1 18:30:41 10° WNW 18:34:32 40° SW 18:38:25 10° SE
Resurs 01 Rocket 3.6 18:31:16 10° SSE 18:32:48 16° SE 18:32:48 16° SE
NOAA 11 4.4 18:29:48 10° SSE 18:35:09 47° E 18:36:40 38° NE
Meteor 1-12 Rocket 4.3 18:29:34 10° SSW 18:35:34 84° ESE 18:38:14 36° NE
H-2A R/B 3.1 18:30:41 10° SSE 18:34:58 30° ESE 18:34:58 30° ESE
Cosmos 1092 Rocket 4.0 18:29:29 10° NNW 18:35:55 88° WSW 18:42:25 10° SSE
Cosmos 1627 Rocket 4.4 18:29:34 10° NNW 18:35:59 83° ENE 18:42:20 10° SSE
SJ 16-02 4.1 18:33:21 10° WSW 18:36:12 17° W 18:39:02 10° NW
Sich 1 Rocket 3.9 18:31:50 10° SSW 18:36:28 68° WNW 18:38:48 29° N
Cosmos 1743 2.8 18:32:59 10° SSW 18:37:01 80° WNW 18:37:54 53° N
Cosmos 2181 Rocket 4.3 18:31:00 10° SSW 18:37:27 58° SE 18:39:54 37° ENE
NOAA 12 4.0 18:32:08 10° SSE 18:37:37 80° ENE 18:43:04 10° NNW
CZ-2D R/B 4.4 18:33:54 10° SSE 18:36:18 32° SE 18:36:18 32° SE
Meteor 2-9 Rocket 4.1 18:33:22 10° SSW 18:38:50 90° SE 18:41:04 38° NNE
USA 81 4.2 18:34:33 10° NNW 18:39:57 80° WSW 18:45:23 10° SSE
YAOGAN 1 2.5 18:36:05 10° SSE 18:40:32 65° ENE 18:43:56 17° N
Cosmos 2195 Rocket 4.4 18:34:34 10° NNW 18:40:48 88° ENE 18:47:04 10° SSE
Cosmos 1151 Rocket 3.9 18:38:47 10° NW 18:43:04 50° SW 18:47:24 10° SSE
Meteor 1-27 Rocket 3.8 18:41:13 36° NNE 18:43:08 51° ENE 18:48:35 10° SSE
Cosmos 1812 4.4 18:46:13 23° SE 18:46:13 23° SE 18:47:53 10° SSE
Cosmos 405 Rocket 3.3 18:40:43 10° SW 18:44:44 47° SE 18:45:04 46° ESE
IRS-1C Rocket 4.3 18:40:55 10° SE 18:46:18 74° SW 18:51:41 10° NW
SeaSat 1 2.5 18:44:59 47° NE 18:46:23 69° NNW 18:51:24 10° WSW
Cosmos 1420 Rocket 4.0 18:41:12 10° WSW 18:46:33 87° SSE 18:48:09 47° ENE
Cosmos 1707 Rocket 3.4 18:42:12 10° NNW 18:46:38 85° ENE 18:51:07 10° SSE
Cosmos 1371 Rocket 4.0 18:41:25 10° WSW 18:46:48 82° NNW 18:48:20 48° NE
IRS-1A Rocket 4.5 18:42:22 10° SSE 18:47:54 48° ENE 18:49:14 41° NE
Cosmos 2228 4.5 18:44:06 10° SW 18:47:59 28° SSE 18:49:14 24° SE
Cosmos 371 Rocket 3.3 18:43:33 10° W 18:48:31 82° S 18:50:10 43° ESE
Cosmos 1975 2.9 18:44:20 10° SSW 18:48:35 81° WNW 18:49:24 56° N
Meteor 2-13 Rocket 4.5 18:45:52 30° NNE 18:48:50 55° E 18:54:51 10° SSE
Ariane Rocket 3.1 18:44:23 10° SSE 18:49:30 52° ENE 18:50:24 46° NE
Cosmos 1515 Rocket 4.4 18:45:32 10° NW 18:50:02 54° SW 18:54:33 10° SSE
Cosmos 2221 4.4 18:46:34 10° W 18:50:27 30° SSW 18:54:21 10° SE
ALOS 3.1 18:46:21 10° SSE 18:50:59 52° SW 18:55:38 10° WNW
IDEFIX/ARIANE 42P 3.9 18:46:11 10° SE 18:51:05 38° SSW 18:55:59 10° W
Cosmos 2242 Rocket 3.8 18:52:06 52° ESE 18:52:06 52° ESE 18:56:03 10° SSE
Cosmos 2228 Rocket 3.7 18:47:44 10° NW 18:52:11 59° SW 18:56:41 10° SSE
Cosmos 1484 Rocket 4.4 18:52:08 10° SSE 18:55:36 33° SW 18:59:04 10° W
H-2A R/B 4.3 18:52:43 12° SE 18:55:43 28° SSW 18:59:13 10° WSW
Cosmos 2227 Rocket 2.3 18:50:31 10° W 18:56:13 66° NNW 18:57:49 46° NE
Cosmos 1844 3.8 18:51:25 10° NW 18:57:05 55° NNE 18:58:23 45° ENE
Okean 1-7 4.3 19:00:07 28° SE 19:00:07 28° SE 19:02:31 10° SSE
Cosmos 1933 4.1 18:54:19 10° NW 18:58:27 55° SW 19:02:37 10° SSE
Cosmos 1666 3.7 18:54:52 10° SSW 18:58:39 46° W 19:00:02 31° NNW
Cosmos 1331 Rocket 4.0 18:53:59 10° W 18:59:15 81° S 19:00:55 45° E
Cosmos 2227 4.2 18:53:45 10° W 18:59:35 73° N 19:01:20 46° ENE
MOS 1 4.5 18:54:07 10° SSE 18:59:40 47° ENE 19:00:08 46° ENE
GP-B 3.1 18:59:27 61° E 18:59:42 63° E 19:04:13 10° S
Cosmos 1939 Rocket 3.5 18:56:17 10° SSE 18:59:25 45° SE 18:59:25 45° SE
Cosmos 1470 4.1 18:57:06 10° SSW 19:00:45 30° SSE 19:01:09 29° SE
Cosmos 1726 4.0 18:58:10 10° SW 19:01:11 22° SSE 19:01:59 20° SSE
Cosmos 1110 Rocket 4.0 18:56:20 10° W 19:01:40 82° S 19:03:16 46° E
Cosmos 1782 Rocket 4.5 18:58:41 10° SSW 19:03:04 48° W 19:05:25 25° NNW
ASTEX 1 3.6 19:00:35 28° N 19:03:15 72° W 19:08:17 10° S
JB-3 4.3 19:03:24 72° ESE 19:03:32 73° ESE 19:07:43 10° SSW
Resurs 1-4 Rocket 3.1 19:01:23 27° ESE 19:03:39 39° SSE 19:08:40 10° SW
Cosmos 1452 Rocket 3.5 18:59:08 10° WSW 19:04:32 88° SSE 19:05:54 52° ENE
CZ-4 R/B 1.5 19:00:15 10° SSE 19:04:38 88° WSW 19:08:58 10° NNW
Nimbus 7 Rocket 4.5 19:05:11 38° NNE 19:07:40 78° WNW 19:13:42 10° SSW
CZ-4B R/B 4.2 19:06:25 37° ESE 19:07:56 47° SSE 19:13:05 10° SW
CSL-04 Rocket 3.5 19:03:17 10° SSE 19:08:48 77° ENE 19:14:14 10° NNW
Meteor 1-29 3.7 19:10:58 47° SSE 19:10:58 47° SSE 19:13:55 10° SSW
Cosmos 2151 Rocket 3.8 19:06:52 10° SSW 19:11:29 72° WNW 19:12:27 53° N
Cosmos 2297 Rocket 2.3 19:06:47 10° WSW 19:12:27 62° NNW 19:13:45 49° NNE
Cosmos 1455 4.5 19:11:32 10° WSW 19:14:45 23° SSW 19:17:32 12° SE
Landsat 4 4.5 19:14:32 43° NW 19:15:12 49° WNW 19:19:01 10° SSW
CZ-4 R/B 3.9 19:14:54 58° E 19:15:37 67° SE 19:20:29 10° SSW
Cosmos 1356 Rocket 4.2 19:12:15 10° WNW 19:16:16 51° SW 19:20:21 10° SE
Cosmos 332 Rocket 3.9 19:11:20 10° W 19:16:22 81° S 19:17:37 52° ESE
ARGOS 3.8 19:15:42 10° SSE 19:20:10 39° ESE 19:20:10 39° ESE
Nadezhda 1 Rocket 4.1 19:15:19 10° SSW 19:21:50 82° WNW 19:24:28 39° NNE
Meteor 1-15 Rocket 4.2 19:17:25 10° SSW 19:23:24 84° SE 19:24:49 54° NE
COSMOS 2487 4.2 19:20:51 10° WSW 19:23:51 25° WNW 19:23:58 25° WNW
Cosmos 292 Rocket 3.7 19:20:19 10° WNW 19:25:12 83° NNE 19:26:04 61° ESE
MOS 1 Rocket 4.0 19:23:26 32° NNW 19:25:25 51° WNW 19:30:02 10° SSW
Cosmos 2266 Rocket 3.9 19:22:23 24° N 19:26:19 76° ENE 19:32:44 10° SSE
Cosmos 2278 Rocket 2.9 19:22:05 10° NNW 19:25:55 37° N 19:25:55 37° N
Helios 1B rocket 2.4 19:30:17 84° SSE 19:30:17 84° SSE 19:34:27 10° SSW
Cosmos 304 Rocket 3.8 19:25:52 10° W 19:30:46 81° S 19:31:40 59° ESE
SPOT 3 Rocket 3.9 19:26:10 10° SSE 19:30:41 47° ESE 19:30:41 47° ESE
Cosmos 1703 Rocket 4.3 19:33:06 41° SE 19:33:06 41° SE 19:36:10 10° SSE
Cosmos 1184 Rocket 4.4 19:29:04 10° SSW 19:31:33 31° S 19:31:33 31° S
Nadezhda 3 Rocket 4.4 19:27:07 10° SW 19:33:31 56° SE 19:35:17 43° E
Okean O Rocket 3.1 19:32:02 10° SE 19:36:14 37° SSW 19:40:24 10° W
Cosmos 1733 4.2 19:32:54 10° SSW 19:36:18 41° SSE 19:36:18 41° SSE
Cosmos 1441 Rocket 3.5 19:32:56 10° SSW 19:36:30 67° WSW 19:36:30 67° WSW
CZ-4B R/B 4.1 19:33:06 10° SE 19:38:19 48° SSW 19:43:27 10° W
CZ-2D R/B 2.9 19:37:12 35° ESE 19:38:43 43° SSE 19:43:44 10° SW
Cosmos 1655 Rocket 4.1 19:32:37 10° NNW 19:39:08 86° WSW 19:45:42 10° SSE
Okean 1 Rocket 3.1 19:35:04 10° SSW 19:39:41 77° WNW 19:39:58 73° NNW
Okean-O 3.4 19:36:05 10° SSE 19:40:31 53° SW 19:44:57 10° WNW
CZ-2C R/B 4.0 19:36:05 10° SE 19:40:48 35° SSW 19:45:35 10° WSW
Cosmos 921 Rocket 3.3 19:37:05 10° W 19:41:31 64° S 19:42:13 54° SE
Cosmos 1544 Rocket 3.7 19:38:52 10° SSW 19:43:07 63° SE 19:43:07 63° SE
Cosmos 1782 3.6 19:39:21 10° NW 19:43:23 54° SW 19:47:29 10° SSE
H-2A R/B 4.1 19:41:27 10° SSE 19:45:17 42° SW 19:49:06 10° WNW
CZ-2C R/B 3.8 19:40:16 10° SSE 19:44:55 41° ESE 19:44:55 41° ESE
Mayak -0.9 19:45:42 61° WNW 19:45:50 61° WNW 19:50:05 10° SSW
FengYun 1-2 T 4.3 19:40:29 10° SSE 19:46:10 80° SW 19:51:46 10° NW
Envisat 3.3 19:41:39 10° SSE 19:46:50 69° SW 19:51:59 10° NW
ARIANE 5 R/B 3.7 19:45:39 27° ESE 19:47:35 37° SSE 19:52:15 10° SW
Cosmos 1766 3.9 19:43:46 10° SSW 19:47:03 50° SSE 19:47:03 50° SSE
ADEOS II 3.3 19:45:45 26° ESE 19:48:04 38° SSE 19:52:58 10° SW
Cosmos 1455 Rocket 3.2 19:43:53 10° SSW 19:48:14 71° SSE 19:48:14 71° SSE
Cosmos 2056 Rocket 3.5 19:44:07 10° WSW 19:49:16 63° NW 19:49:39 61° NNW
Cosmos 1862 Rocket 3.7 19:48:35 53° NW 19:49:36 76° WSW 19:54:07 10° SSE
Cosmos 1953 3.5 19:46:47 10° SSW 19:50:32 36° SSE 19:50:32 36° SSE
Cosmos 1805 4.0 19:46:57 10° SSW 19:50:15 50° S 19:50:15 50° S
Cosmos 1544 3.8 19:47:47 10° SSW 19:50:58 54° WSW 19:50:58 54° WSW
Cosmos 1300 Rocket 4.3 19:49:00 10° SSW 19:53:21 48° W 19:54:04 43° NW
Cosmos 1400 Rocket 4.2 19:55:56 32° SSE 19:55:56 32° SSE 19:58:13 10° SSE
SME Rocket 4.0 19:54:10 38° SE 19:54:37 39° SSE 19:58:50 10° SW
PSLV R/B 4.0 19:55:19 59° ESE 19:55:30 60° SE 20:00:14 10° SSW
Cosmos 489 Rocket 4.5 19:49:19 10° W 19:55:43 84° S 19:58:28 37° E
SL-19 R/B 4.5 19:54:20 57° NE 19:55:47 85° SE 20:02:14 10° SW
Cosmos 1844 Rocket 2.5 19:51:15 10° WNW 19:56:52 69° NNE 19:57:01 69° NNE
Cosmos 1992 Rocket 4.0 19:51:33 10° W 19:56:53 81° S 19:57:55 59° ESE
Cosmos 2219 3.7 19:52:25 10° WSW 19:57:49 46° NW 19:58:26 44° NNW
YAOGAN 6 3.5 19:54:59 10° SSE 19:58:38 50° SW 19:58:42 50° SW
Cosmos 2082 3.8 19:53:29 10° WSW 19:59:04 58° NNW 19:59:27 57° NNW
SMAP 4.2 19:56:53 10° SE 20:01:25 45° SW 20:05:57 10° WNW
Meteor 2-6 Rocket 4.4 19:55:51 10° NW 20:01:45 75° SW 20:07:30 10° SE
Terra 3.7 19:58:02 10° SSE 20:00:11 18° SE 20:00:11 18° SE
Meteor 1-22 Rocket 4.0 20:00:16 10° SSW 20:05:52 81° SE 20:06:20 73° ENE
Timation 1 Rocket 4.3 20:00:00 10° W 20:06:00 67° N 20:06:25 65° NNE
Okean 2 Rocket 4.4 20:02:02 10° SSW 20:06:14 36° W 20:07:26 30° NW
Cosmos 1606 4.4 20:02:59 10° WNW 20:06:41 35° SW 20:10:23 10° SSE
NPP 4.2 20:06:05 43° ESE 20:07:15 50° SSE 20:12:33 10° SW
SL-08 R/B 4.4 20:06:56 60° ENE 20:07:22 62° E 20:13:31 10° SSE
Cosmos 1624 Rocket 4.3 20:02:15 10° WSW 20:07:34 57° NW 20:07:53 56° NNW
Meteor 1-10 Rocket 4.4 20:01:53 10° NW 20:07:44 75° SW 20:13:30 10° SE
Cosmos 1244 Rocket 4.4 20:07:26 60° NNE 20:08:29 72° ENE 20:14:49 10° SSE
Resurs 01 Rocket 2.9 20:07:45 10° SSE 20:10:22 31° SE 20:10:22 31° SE
CZ-2D R/B 4.0 20:08:23 10° SSE 20:11:38 51° S 20:11:38 51° S
Cosmos 1743 4.4 20:08:59 10° SSW 20:12:26 28° W 20:13:00 27° WNW
CSL-04 Debris 4.4 20:06:57 10° SE 20:12:33 72° SW 20:18:07 10° NW
Cosmos 1302 Rocket 3.9 20:09:55 10° WSW 20:15:20 85° SSE 20:15:48 75° E
MOS 1-B Rocket 4.3 20:14:10 43° ESE 20:15:37 54° SSE 20:21:24 10° SW
H-2A R/B 2.2 20:10:21 10° SSE 20:15:36 65° E 20:15:36 65° E
NOAA 11 4.2 20:10:37 10° SSE 20:16:11 84° WSW 20:18:29 37° NW
Cosmos 2263 Rocket 2.1 20:10:53 10° W 20:16:30 71° N 20:16:31 71° N
YAOGAN 1 3.2 20:12:20 10° SSE 20:16:42 56° SW 20:21:02 10° WNW
Cosmos 2098 Rocket 4.5 20:16:19 51° ENE 20:17:09 53° E 20:23:52 10° SSE
SPOT 5 4.4 20:13:42 10° SSE 20:17:04 27° ESE 20:17:04 27° ESE
Cosmos 1812 4.0 20:21:17 37° SSE 20:21:17 37° SSE 20:23:50 10° SSE
Cosmos 405 Rocket 3.5 20:16:52 10° SSW 20:20:13 56° SW 20:20:13 56° SW
Cosmos 2181 Rocket 4.1 20:16:54 10° SSW 20:23:25 77° WNW 20:24:45 58° N
Cosmos 1943 Rocket 4.5 20:28:57 11° ESE 20:28:57 11° ESE 20:29:16 10° ESE
SeaSat 1 3.1 20:24:45 43° NW 20:24:45 43° NW 20:29:17 10° WSW
Cosmos 1975 4.4 20:21:00 10° SSW 20:24:41 30° W 20:25:12 29° WNW
Cosmos 1606 Rocket 4.3 20:21:15 10° SSW 20:25:10 47° SSE 20:25:10 47° SSE
Meteor 1-27 Rocket 3.7 20:23:32 30° NW 20:26:24 78° SW 20:32:05 10° SSE
Cosmos 2228 3.9 20:22:09 10° SSW 20:26:04 45° SSE 20:26:04 45° SSE
Cosmos 2292 Rocket 4.1 20:28:32 58° SSE 20:28:32 58° SSE 20:32:47 10° SSE
ALOS 4.0 20:23:37 10° SE 20:27:52 33° SSW 20:32:07 10° W
Cosmos 1420 Rocket 4.1 20:23:22 10° WSW 20:28:24 63° NW 20:28:24 63° NW
Ariane Rocket 3.1 20:23:33 10° SSE 20:28:47 76° SW 20:30:36 41° NW
Cosmos 371 Rocket 3.3 20:24:11 10° WSW 20:28:49 78° WSW 20:28:49 78° WSW
IRS-1A Rocket 4.3 20:24:09 10° SSE 20:29:53 86° SW 20:32:08 40° NW
Cosmos 2242 Rocket 4.0 20:29:34 59° WSW 20:29:54 61° SW 20:34:24 10° SSE
IDEFIX/ARIANE 42P 4.0 20:26:26 17° ESE 20:29:54 35° S 20:34:43 10° WSW
H-2A R/B 4.3 20:29:17 22° SE 20:30:28 26° S 20:33:52 10° SW
Cosmos 1709 Rocket 4.3 20:32:27 52° E 20:32:28 52° E 20:38:45 10° SSE
Cosmos 1939 Rocket 3.6 20:31:20 10° SSE 20:35:20 56° SW 20:35:20 56° SW
Okean 1-7 3.8 20:36:57 49° SSE 20:36:57 49° SSE 20:40:14 10° SSE
Cosmos 2221 Rocket 4.4 20:37:53 48° SSE 20:37:53 48° SSE 20:41:17 10° SSE
GP-B 3.8 20:36:53 49° W 20:37:14 51° WSW 20:41:42 10° S
Meteor 2-4 Rocket 4.1 20:37:59 52° ESE 20:37:59 52° ESE 20:43:06 10° SSE
Cosmos 1726 3.8 20:33:53 10° SSW 20:36:31 30° S 20:36:31 30° S
Cosmos 1470 3.9 20:33:27 10° SSW 20:36:31 44° S 20:36:31 44° S
CZ-4 R/B 2.7 20:35:21 10° SSE 20:39:27 42° SW 20:43:31 10° WNW
Cosmos 2227 Rocket 2.8 20:34:25 10° WSW 20:39:38 43° NW 20:39:38 43° NW
Cosmos 1844 3.8 20:35:10 10° WNW 20:40:17 64° NW 20:40:17 64° NW
Cosmos 1331 Rocket 4.0 20:36:08 10° WSW 20:41:06 77° W 20:41:06 77° W
MOS 1 4.2 20:35:45 10° SSE 20:41:33 86° WSW 20:42:53 56° NW
Resurs 1-4 Rocket 2.4 20:42:27 56° ESE 20:42:58 59° SE 20:48:18 10° SW
Cosmos 2227 4.3 20:37:51 10° WSW 20:43:16 63° NW 20:43:16 63° NW
Cosmos 1110 Rocket 4.0 20:38:34 10° WSW 20:43:31 75° WNW 20:43:31 75° WNW
Cosmos 1758 4.4 20:40:39 10° SSW 20:43:38 44° S 20:43:38 44° S
deb Chang Zheng 4 4.5 20:45:58 44° SSE 20:45:58 44° SSE 20:50:07 10° SW
MetOp-A 4.3 20:40:23 10° SSE 20:45:08 60° ESE 20:45:08 60° ESE
CZ-4B R/B 3.5 20:46:20 82° ESE 20:46:22 82° SE 20:51:47 10° SSW
Cosmos 1452 Rocket 3.8 20:41:20 10° WSW 20:46:14 59° WNW 20:46:14 59° WNW
ERS-1 Rocket 4.1 20:41:57 10° SSE 20:45:19 33° ESE 20:45:19 33° ESE
Cosmos 2058 Rocket 3.9 20:43:54 10° SSW 20:47:46 46° SSE 20:47:46 46° SSE
CSL-04 Rocket 4.2 20:43:44 10° SE 20:49:09 58° SW 20:54:28 10° WNW
Meteor 1-16 Rocket 4.3 20:44:51 10° SW 20:50:14 63° SE 20:50:29 62° ESE
Cosmos 1745 Rocket 3.9 20:51:00 72° NE 20:51:29 75° ENE 20:57:55 10° SSE
Cosmos 1455 4.3 20:48:21 10° SW 20:51:35 23° SSE 20:52:27 21° SSE
Cosmos 1300 4.5 20:49:44 10° SSW 20:52:57 28° SSE 20:52:57 28° SSE
CZ-4 R/B 4.2 20:54:05 57° W 20:54:05 57° W 20:58:40 10° SSW
USA 32 4.4 20:54:58 56° ESE 20:54:58 56° ESE 20:59:32 10° SSE
Cosmos 2297 Rocket 3.0 20:50:41 10° WSW 20:55:34 38° WNW 20:55:34 38° WNW
Meteor 1-18 Rocket 4.2 20:55:52 78° N 20:56:15 84° ENE 21:02:19 10° SSE
Cosmos 332 Rocket 4.1 20:52:00 10° WSW 20:56:18 66° WSW 20:56:18 66° WSW
Meteor 2-19 Rocket 4.3 20:59:17 68° NNW 21:00:11 88° WSW 21:06:24 10° SSE
ARGOS 3.1 20:56:13 10° SSE 21:01:42 86° ESE 21:01:42 86° ESE
SL-08 RB Rocket 4.4 20:58:21 10° SSE 21:01:42 47° SSE 21:01:42 47° SSE
Cosmos 292 Rocket 4.3 21:00:43 10° W 21:04:35 55° WSW 21:04:35 55° WSW
Helios 1B rocket 3.8 21:06:36 34° WSW 21:06:36 34° WSW 21:09:50 10° SSW
SL-08 ROCKET BODY 4.3 21:07:17 72° E 21:07:17 72° E 21:13:24 10° SSE
Spot 2 Rocket 4.0 21:04:16 10° SSE 21:08:21 52° SE 21:08:21 52° SE
Cosmos 1703 Rocket 4.3 21:10:14 52° SSW 21:10:14 52° SSW 21:14:12 10° SSE
SPOT 1/Viking Rocket 4.4 21:05:23 10° SSE 21:09:14 41° ESE 21:09:14 41° ESE
Cosmos 1727 Rocket 4.2 21:04:45 10° SSW 21:11:02 62° SE 21:12:00 55° E
SPOT 3 Rocket 3.6 21:05:48 10° SSE 21:11:09 79° SW 21:11:21 77° W
Cosmos 304 Rocket 4.3 21:06:20 10° WSW 21:10:10 56° WSW 21:10:10 56° WSW
Cosmos 2278 Rocket 3.7 21:05:35 10° WNW 21:07:50 25° WNW 21:07:50 25° WNW
Cosmos 2369 Rocket 4.2 21:15:32 16° ESE 21:15:32 16° ESE 21:16:45 10° ESE
Okean O Rocket 3.6 21:07:56 10° SE 21:11:52 29° S 21:15:47 10° WSW
Okean-O 4.4 21:12:26 10° SE 21:16:30 33° SSW 21:20:33 10° W
CZ-2C R/B 4.1 21:14:12 13° ESE 21:18:13 34° S 21:22:57 10° SW
CZ-4B R/B 4.5 21:13:14 10° ESE 21:18:15 38° S 21:23:12 10° WSW
CZ-2D R/B 2.2 21:18:32 72° SE 21:18:32 72° SE 21:23:46 10° SSW
Nadezhda 3 Rocket 3.9 21:12:56 10° SSW 21:19:27 81° WNW 21:20:01 74° NNW
Cosmos 921 Rocket 4.0 21:15:49 10° WSW 21:19:01 44° SW 21:19:01 44° SW
Resurs 1-3 4.4 21:15:57 10° SSE 21:19:14 48° SSE 21:19:14 48° SSE
Mayak 0.7 21:22:16 24° W 21:22:16 24° W 21:25:41 10° SSW
CZ-2C R/B 4.5 21:25:34 31° SSE 21:25:34 31° SSE 21:28:36 10° SSW
Envisat 4.3 21:20:39 10° SE 21:25:29 41° SSW 21:30:19 10° W
CZ-2C R/B 3.1 21:20:22 10° SSE 21:25:59 85° SSE 21:25:59 85° SSE
ARIANE 5 R/B 2.9 21:25:59 54° SE 21:26:11 54° SE 21:31:10 10° SW
Cosmos 1455 Rocket 4.2 21:21:52 10° SSW 21:25:21 40° WSW 21:25:21 40° WSW
ADEOS II 2.6 21:26:41 52° ESE 21:27:12 54° SE 21:32:26 10° SW
Cosmos 1953 3.6 21:23:24 10° SSW 21:26:14 41° SSW 21:26:14 41° SSW
Meteor 1-19 Rocket 4.2 21:30:01 85° NW 21:30:13 89° WSW 21:36:13 10° SSE
Meteor 2-16 Rocket 4.4 21:30:29 70° E 21:30:29 70° E 21:36:30 10° SSE
Cosmos 1400 Rocket 4.2 21:31:31 38° SSW 21:31:31 38° SSW 21:34:56 10° SE
Cosmos 1726 Rocket 4.4 21:26:43 10° SSW 21:30:03 49° SSW 21:30:03 49° SSW
PSLV R/B 4.4 21:33:06 55° WSW 21:33:06 55° WSW 21:37:06 10° SSW
IRS-1D 3.7 21:35:11 68° SE 21:35:11 68° SE 21:40:28 10° SSW
Cosmos 1809 Rocket 4.3 21:37:43 82° NNW 21:38:01 89° ENE 21:44:18 10° SSE
Cosmos 1992 Rocket 4.3 21:33:44 10° WSW 21:38:03 60° WSW 21:38:03 60° WSW
Meteor 1-13 Rocket 4.3 21:40:09 79° E 21:40:09 79° E 21:45:59 10° SSE
Terra 2.9 21:35:50 10° SSE 21:39:04 37° SE 21:39:04 37° SE
Cosmos 1844 Rocket 3.4 21:35:01 10° W 21:38:42 42° W 21:38:42 42° W
Meteor 2-10 4.2 21:35:35 10° SW 21:40:22 71° S 21:40:22 71° S
Cosmos 489 Rocket 4.4 21:36:02 10° WSW 21:42:26 89° NNW 21:42:57 77° ENE
CBERS-1 4.2 21:43:27 72° SSE 21:43:27 72° SSE 21:48:21 10° SSW
Meteor 2-14 Rocket 4.3 21:43:45 84° NNE 21:43:55 85° ENE 21:50:12 10° SSE
IRS-1C 4.2 21:44:48 71° SE 21:44:48 71° SE 21:50:13 10° SW
NPP 3.7 21:47:35 81° SSW 21:47:35 81° SSW 21:52:50 10° SSW
Meteor 2-21 4.3 21:47:46 82° NNW 21:48:04 89° WSW 21:54:22 10° SSE
Resurs 01 Rocket 2.4 21:44:25 10° SSE 21:47:56 51° S 21:47:56 51° S
Meteor 1-23 Rocket 4.5 21:49:44 60° ESE 21:49:44 60° ESE 21:54:39 10° SSE
SME Rocket 4.2 21:52:25 41° SSW 21:52:25 41° SSW 21:55:23 10° SW
YAOGAN 1 4.3 21:48:21 10° SE 21:52:19 33° SSW 21:56:17 10° W
H-2A R/B 2.5 21:49:56 10° SSE 21:55:28 65° SW 21:56:15 58° W
SPOT 5 3.5 21:51:57 10° SSE 21:56:18 54° SE 21:56:18 54° SE
Cosmos 2098 Rocket 4.3 21:56:50 63° NNW 21:58:14 86° WSW 22:05:12 10° SSE
Cosmos 1812 Rocket 4.5 21:53:50 10° SSW 21:57:33 48° S 21:57:33 48° S
AQUA 4.3 22:00:47 60° SSW 22:00:47 60° SSW 22:04:49 10° SSW
Cosmos 2263 Rocket 3.2 21:54:41 10° WSW 21:58:12 36° W 21:58:12 36° W
MetOp-B 4.2 21:55:41 10° SSE 22:00:44 76° SSE 22:00:44 76° SSE
SeaSat 1 4.3 22:04:32 20° W 22:04:32 20° W 22:07:01 10° WSW
Cosmos 2228 4.2 21:59:54 10° SSW 22:02:54 42° SSW 22:02:54 42° SSW
ALOS 4.2 22:00:23 10° ESE 22:04:29 29° S 22:08:35 10° SW
MOS 1-B Rocket 3.8 22:04:41 85° WSW 22:04:41 85° WSW 22:10:30 10° SSW
Cosmos 2123 Rocket 4.4 21:58:48 10° SSW 22:05:04 58° SE 22:06:24 49° E
H-2A R/B 3.9 22:05:50 34° SSE 22:05:50 34° SSE 22:09:01 10° SW
Meteor 2-21 Rocket 4.3 22:05:22 82° NW 22:05:40 87° WSW 22:11:58 10° SSE
Cosmos 1943 Rocket 3.7 22:10:28 25° E 22:10:28 25° E 22:12:52 10° ESE
Ariane Rocket 4.1 22:02:30 10° SE 22:07:26 44° SSW 22:10:50 19° W
Cosmos 2221 4.2 22:04:04 10° SW 22:08:00 30° SSE 22:08:50 28° SE
ALOS 2 4.5 22:04:35 10° SSE 22:07:08 24° ESE 22:07:08 24° ESE
IDEFIX/ARIANE 42P 3.5 22:07:14 36° ESE 22:08:49 46° SSE 22:13:54 10° SW
Cosmos 2154 Rocket 4.2 22:09:35 58° E 22:09:35 58° E 22:15:43 10° SSE
Cosmos 1975 Rocket 4.2 22:12:12 42° SSE 22:12:12 42° SSE 22:15:14 10° SSE
Cosmos 1315 Rocket 4.4 22:12:01 35° S 22:12:01 35° S 22:15:05 10° SE
Cosmos 1726 4.2 22:09:16 10° SSW 22:11:02 26° SSW 22:11:02 26° SSW
CZ-4 R/B 3.5 22:10:08 10° SE 22:13:49 28° SSW 22:17:31 10° WSW
Okean 1-7 4.3 22:13:47 37° SW 22:13:59 37° SW 22:18:04 10° SSE
Cosmos 1339 Rocket 4.4 22:08:58 10° SSW 22:15:21 82° WNW 22:15:33 81° NW
Cosmos 1709 Rocket 4.0 22:17:06 72° WNW 22:17:44 81° WSW 22:24:18 10° SSE
Meteor 2-4 Rocket 3.8 22:20:03 74° WSW 22:20:18 75° SW 22:26:18 10° SE
IRS-P3 4.2 22:21:18 73° SW 22:21:18 73° SW 22:26:15 10° SSW
Cosmos 2227 Rocket 3.9 22:18:28 10° WSW 22:21:27 20° W 22:21:27 20° W
Resurs 1-4 Rocket 2.4 22:23:32 65° WSW 22:23:32 65° WSW 22:28:17 10° SSW
CZ-4B R/B 4.3 22:26:16 45° WSW 22:26:16 45° WSW 22:30:41 10° SSW
Cosmos 2074 Rocket 3.9 22:25:38 79° ENE 22:25:40 79° ENE 22:32:00 10° SSE
MetOp-A 4.4 22:20:41 10° SE 22:26:06 63° SW 22:26:30 61° WSW
ERS-1 Rocket 3.3 22:20:58 10° SSE 22:25:20 64° SSE 22:25:20 64° SSE
Cosmos-2242 4.1 22:22:05 10° SSW 22:25:38 43° SSE 22:25:38 43° SSE
Cosmos 2058 Rocket 4.2 22:22:05 10° SSW 22:25:02 41° SW 22:25:02 41° SW
Cosmos 1455 4.0 22:24:32 10° SSW 22:27:23 31° S 22:27:23 31° S
Cosmos 2184 Rocket 3.9 22:30:00 80° NE 22:30:09 80° ENE 22:36:39 10° SSE
Meteor 1-16 Rocket 4.5 22:27:57 10° SSW 22:32:27 56° WSW 22:32:27 56° WSW
USA 32 4.4 22:35:29 61° SW 22:35:29 61° SW 22:40:42 10° SSE
Cosmos 1745 Rocket 4.4 22:35:38 47° W 22:37:14 59° SW 22:43:38 10° SSE
Cosmos 2297 Rocket 4.1 22:34:49 10° WSW 22:37:22 18° W 22:37:22 18° W
ATLAS 3B R/B 4.1 22:44:15 25° ENE 22:44:15 25° ENE 22:47:42 10° E
ARGOS 3.8 22:36:34 10° SE 22:41:56 53° SW 22:43:13 43° WSW
Okean O Rocket 3.4 22:43:24 10° E 22:47:27 32° SSE 22:51:30 10° SW
Cosmos 841 Rocket 4.4 22:50:06 41° ESE 22:50:06 41° ESE 22:53:32 10° E
Landsat 7 4.3 22:43:23 10° SSE 22:47:30 60° S 22:47:30 60° S
Spot 2 Rocket 3.8 22:43:25 10° SE 22:48:33 62° SW 22:48:33 62° SW
Cosmos 2341 Rocket 4.1 22:49:02 62° ENE 22:49:08 62° E 22:55:23 10° SSE
SPOT 3 Rocket 4.5 22:45:12 10° SE 22:50:16 46° SSW 22:52:01 34° WSW
SPOT 1/Viking Rocket 3.7 22:45:01 10° SSE 22:49:52 72° S 22:49:52 72° S
Meteor 2-10 Rocket 4.1 22:48:44 10° SW 22:53:48 53° SE 22:54:21 50° ESE
Cosmos 2369 Rocket 3.2 22:57:19 36° E 22:57:19 36° E 23:00:39 10° E
CZ-2C R/B 3.5 22:53:33 29° E 22:55:45 45° SSE 23:00:47 10° SW
Cosmos 1727 Rocket 4.0 22:50:29 10° SSW 22:56:44 71° W 22:56:44 71° W
Cosmos 2366 rocket 4.4 22:56:25 52° ENE 22:56:53 53° E 23:03:05 10° SSE
CZ-4B R/B 4.3 22:52:58 10° E 22:58:08 43° SSE 23:03:13 10° SW
Meteor 1-31 Rocket 4.4 22:58:33 33° SSE 22:58:33 33° SSE 23:01:55 10° SSW
CZ-2D R/B 2.7 22:59:50 48° WSW 22:59:50 48° WSW 23:04:03 10° SSW
Spot 4 Rocket 4.3 22:59:48 66° SW 22:59:48 66° SW 23:04:18 10° SSW
Meteor 2-1 Rocket 4.2 22:57:19 10° SSW 23:03:06 85° SE 23:03:06 85° SE
Cosmos 1953 4.4 22:59:57 10° SSW 23:01:56 24° SW 23:01:56 24° SW
ARIANE 5 R/B 2.9 23:06:19 57° SW 23:06:19 57° SW 23:10:25 10° SSW
Cosmos 1295 Rocket 4.4 23:05:17 75° ENE 23:05:21 75° ENE 23:11:34 10° SSE
CZ-2C R/B 3.9 23:00:16 10° SE 23:05:50 51° SW 23:07:03 43° WSW
ADEOS II 2.3 23:07:37 66° SW 23:07:37 66° SW 23:12:16 10° SSW
Cosmos 1814 Rocket 4.4 23:10:03 57° ESE 23:10:03 57° ESE 23:14:22 10° E
ADEOS 3.7 23:11:49 74° SE 23:11:49 74° SE 23:17:06 10° SSW
IRS-1D 4.1 23:15:39 51° WSW 23:15:39 51° WSW 23:19:56 10° SSW
Cosmos 1538 Rocket 4.5 23:15:46 56° E 23:15:46 56° E 23:20:06 10° ESE
Cosmos 1025 Rocket 4.1 23:16:31 44° SSE 23:16:31 44° SSE 23:19:35 10° SSE
ERS-2 4.5 23:12:54 10° SE 23:14:42 20° ESE 23:14:42 20° ESE
Cosmos 1066 Rocket 4.2 23:16:38 76° SW 23:16:39 76° SW 23:22:30 10° SE
SL-16 R/B 4.4 23:15:52 13° ENE 23:16:40 13° E 23:19:18 10° ESE
Cosmos 1697 Rocket 4.1 23:19:08 26° ENE 23:19:08 26° ENE 23:22:53 10° ESE
Cosmos 1680 Rocket 4.2 23:19:52 46° E 23:19:52 46° E 23:23:51 10° ESE
Terra 2.2 23:13:46 10° SSE 23:17:57 63° S 23:17:57 63° S
Helios 1A 4.2 23:14:30 10° SSE 23:17:23 40° SE 23:17:23 40° SE
Meteor 1-21 4.3 23:19:39 75° E 23:19:39 75° E 23:25:16 10° SSE
Cosmos 1610 Rocket 4.4 23:19:25 78° NW 23:19:54 86° WSW 23:26:27 10° SSE
Cosmos 1000 Rocket 4.4 23:15:05 10° SSW 23:21:30 77° WNW 23:21:39 76° WNW
Cosmos 1844 Rocket 4.5 23:18:46 10° WSW 23:20:22 19° WSW 23:20:22 19° WSW
Resurs 01 Rocket 2.9 23:20:53 10° SE 23:25:05 37° SSW 23:25:31 36° SW
SL-8 Rocket 4.0 23:24:59 69° NE 23:25:18 70° ENE 23:31:33 10° SSE
Cosmos 1340 Rocket 4.3 23:22:44 10° SW 23:25:33 35° S 23:25:33 35° S
NPP 4.5 23:29:04 40° WSW 23:29:04 40° WSW 23:33:19 10° SSW
Cosmos 1707 4.3 23:32:29 35° SE 23:32:29 35° SE 23:34:56 10° SSE
Meteor 1-23 Rocket 4.4 23:31:59 61° WSW 23:32:22 63° SW 23:38:04 10° SE
H-2A R/B 3.3 23:29:14 10° SE 23:34:25 41° SSW 23:36:53 27° WSW
SPOT 5 3.3 23:30:09 10° SSE 23:35:28 62° SW 23:35:32 62° SW
MSX 4.0 23:33:59 49° ENE 23:35:34 70° SE 23:41:23 10° SW
Cosmos 1484 Rocket 4.5 23:36:18 31° SE 23:36:37 31° SSE 23:40:01 10° SSW
Cosmos 2327 Rocket 4.4 23:36:56 70° W 23:37:25 74° WSW 23:43:39 10° SSE
H-2A R/B 4.0 23:42:24 30° SSW 23:42:24 30° SSW 23:44:33 10° SSW
Cosmos 1980 Rocket 3.6 23:41:09 26° ENE 23:41:09 26° ENE 23:45:33 10° ESE
ALOS 3.7 23:36:47 10° E 23:41:09 37° SSE 23:45:32 10° SW
Cosmos 1842 Rocket 4.3 23:36:52 10° SSW 23:40:47 55° SSE 23:40:47 55° SSE
Cosmos 2263 Rocket 4.1 23:38:30 10° WSW 23:39:54 16° WSW 23:39:54 16° WSW
ALOS 2 3.4 23:41:00 10° SSE 23:44:32 51° SE 23:44:32 51° SE
Ariane Rocket 4.5 23:41:01 10° ESE 23:45:44 36° S 23:50:26 10° WSW
Cosmos 540 Rocket 3.7 23:46:51 65° ESE 23:46:51 65° ESE 23:51:20 10° E
Cosmos 2221 3.4 23:42:01 10° SSW 23:45:41 49° SSE 23:45:41 49° SSE
Spot 4 4.1 23:42:27 10° SSE 23:46:47 69° SSE 23:46:47 69° SSE
CZ-4 R/B 3.6 23:44:24 10° ESE 23:48:01 26° S 23:51:38 10° SW
IDEFIX/ARIANE 42P 2.6 23:48:01 79° ESE 23:48:08 80° SE 23:53:32 10° SSW
Cosmos 1975 Rocket 4.0 23:49:21 44° SSW 23:49:21 44° SSW 23:53:19 10° SSE
IRAS Rocket 4.2 23:44:29 10° SE 23:50:10 80° ENE 23:50:10 80° ENE
Cosmos 1943 Rocket 2.5 23:51:58 55° ENE 23:51:58 55° ENE 23:56:30 10° E
Cosmos 962 Rocket 4.4 23:50:12 74° NW 23:50:51 86° WSW 23:57:23 10° SSE
Cosmos 2123 Rocket 3.8 23:44:32 10° SSW 23:50:53 76° WNW 23:51:04 75° NW
